Lid_Strength_Index
3 2 2 2 2 2 2 2 2 1 2 3 3 3 3 2 2 5 5 3 3 5 4 3 3 4 5 5 8 6 7 7 7 10 11 13 13 12 13 11 12 14 15 15 14 16 17 6 7 11 9 7 7 6
3 2 2 2 2 2 2 2 2 1 1 2 2 3 3 3 2 4 6 1 2 4 5 2 2 2 3 3 5 5 7 6 7 9 9 9 11 11 11 16 9 13 12 14 12 13 8 6 7 6 5 6 6 6
2 2 2 2 2 2 2 2 2 1 1 2 3 2 3 3 2 4 6 4 2 4 4 4 4 1 1 2 2 6 5 4 6 5 7 8 10 9 13 11 11 9 8 11 11 9 8 6 5 5 4 5 5 5
2 2 2 2 2 2 2 2 2 1 1 2 3 3 2 3 3 4 6 4 3 4 7 5 1 2 1 2 1 2 3 3 4 4 7 8 9 7 10 9 10 9 8 10 10 8 6 6 5 5 4 4 4 4
2 2 2 2 2 2 2 2 2 1 1 2 2 3 3 3 4 5 5 4 3 4 8 6 3 2 2 2 1 1 3 4 5 7 7 8 7 8 7 8 9 7 8 11 12 8 8 7 5 4 4 4 4 4
2 3 2 2 2 2 2 2 2 2 1 1 1 2 3 3 4 5 4 2 1 1 5 9 3 2 2 2 2 3 3 4 5 6 7 7 5 7 10 12 7 6 6 6 8 6 5 5 4 3 4 4 4 4
3 3 3 3 3 2 2 2 2 1 1 1 1 2 3 3 5 6 5 3 4 4 5 8 7 3 2 3 3 4 3 4 5 6 7 7 7 6 9 13 7 6 5 5 4 5 6 5 6 4 3 3 3 3
4 3 3 2 2 2 2 2 2 1 1 2 2 1 2 3 4 6 5 5 4 3 4 8 8 6 3 6 7 4 5 5 5 6 6 7 7 8 11 8 6 5 5 5 4 4 5 4 4 4 3 3 4 4
3 3 2 2 2 2 2 1 1 1 1 2 2 1 3 4 4 3 0 3 -0 3 7 7 9 10 4 5 5 5 5 8 5 8 8 7 10 14 9 8 7 6 6 5 4 4 4 5 4 4 4 4 5 4
3 3 3 2 2 2 2 1 1 2 3 2 2 4 5 2 0 -0 2 4 4 4 5 8 6 9 5 6 7 7 6 8 11 9 6 9 11 7 6 6 5 5 4 4 6 6 5 5 5 4 4 4 4 4
3 3 2 2 2 2 1 1 2 2 3 4 4 4 1 0 2 4 7 7 6 7 6 6 6 8 4 8 8 6 9 8 12 10 10 11 11 8 6 5 5 4 4 4 4 4 4 4 4 4 4 3 3 3
3 2 2 2 2 2 1 1 2 3 3 4 4 2 1 3 5 7 8 7 8 8 6 7 6 6 6 5 8 7 9 9 12 7 10 13 9 7 6 5 4 4 3 3 2 3 3 3 3 3 4 4 3 3
3 2 2 2 2 3 3 3 3 3 4 3 3 5 6 6 11 11 11 9 9 7 6 6 7 6 6 6 8 8 10 11 7 10 12 10 8 6 6 5 5 4 3 3 3 3 3 3 2 3 3 3 3 3
3 3 2 2 2 3 2 3 2 3 4 5 7 12 9 10 9 9 8 8 6 5 5 5 6 7 6 8 9 10 9 8 11 13 12 9 7 6 5 4 4 4 4 4 4 4 4 3 3 3 3 3 3 3
3 2 2 2 2 2 2 2 3 3 4 6 7 12 10 7 6 6 5 5 5 4 5 6 6 7 8 8 8 8 10 11 11 11 9 7 6 6 5 4 4 4 4 4 3 4 3 3 3 3 3 3 3 3
2 2 2 2 2 2 3 3 3 3 3 5 7 9 7 8 7 6 6 7 5 6 5 6 8 10 10 9 10 11 11 12 10 8 7 6 6 5 5 4 4 4 4 4 3 3 3 3 4 3 3 3 3 3
2 2 2 2 2 3 3 4 4 6 7 7 8 5 6 6 7 6 5 6 4 6 9 8 11 11 9 11 10 8 10 8 7 6 5 5 5 5 4 4 4 4 4 4 3 3 3 3 3 3 4 3 4 4
2 1 2 2 2 3 4 4 5 7 8 7 8 6 5 5 6 5 4 4 5 7 7 9 7 11 11 11 10 7 7 6 5 5 5 5 4 4 4 4 4 4 4 4 3 3 3 3 4 4 4 4 5 5
2 2 2 2 3 4 6 6 5 9 8 6 6 5 5 5 4 4 4 4 4 4 6 7 9 10 9 8 8 7 6 6 6 6 5 4 4 4 4 4 4 4 4 4 4 4 4 4 4 4 5 5 6 6
2 2 3 3 3 5 6 6 5 6 7 6 5 6 5 5 5 4 4 5 5 6 8 9 9 8 7 7 5 5 5 5 5 6 6 5 4 4 4 4 4 3 4 5 6 6 5 5 5 5 4 4 5 6
3 2 3 3 2 4 4 5 6 5 5 7 5 5 6 5 6 6 6 4 7 8 9 7 6 5 4 4 4 4 4 4 5 5 5 6 4 4 4 3 3 5 6 6 6 6 6 6 5 5 5 5 4 4
2 2 3 3 5 4 4 3 5 5 6 6 6 6 7 7 7 6 4 6 6 6 6 5 5 5 5 5 4 4 3 3 3 4 6 4 5 4 4 4 4 5 5 6 6 6 6 5 4 4 4 4 4 3
3 3 3 5 6 7 7 3 6 5 8 7 6 7 7 7 6 4 7 5 5 4 4 4 4 4 4 4 3 3 3 4 4 4 4 4 3 3 3 3 4 6 6 5 4 4 5 5 4 3 3 3 3 3
3 5 6 6 7 9 5 7 5 6 6 7 8 8 7 8 6 8 9 6 5 4 4 4 4 4 4 4 5 4 4 3 4 3 3 3 4 4 3 4 4 4 4 3 3 3 2 2 3 3 3 3 3 3
8 8 7 11 6 8 8 8 7 8 9 8 8 8 8 6 9 9 9 7 6 5 5 4 4 4 6 5 5 4 3 3 4 5 3 3 4 3 4 3 3 3 2 3 3 3 3 2 2 3 3 3 3 3
11 7 9 7 7 8 8 9 8 8 8 8 8 7 6 8 9 9 8 6 5 5 4 4 5 5 5 4 5 4 4 2 3 4 3 3 3 3 4 4 4 4 2 2 2 3 3 3 3 3 3 4 5 3
10 8 6 4 5 6 7 6 6 8 9 9 8 8 9 11 10 8 5 4 4 4 3 3 3 4 4 4 3 3 2 2 2 3 2 1 1 1 2 3 4 3 1 1 2 2 3 3 3 3 3 2 2 2
6 6 8 6 6 6 7 8 9 9 9 7 7 10 10 10 9 6 4 3 2 2 2 2 2 3 3 3 2 2 2 2 2 2 2 1 1 2 2 2 1 6 3 1 1 1 2 2 2 2 2 2 2 2
7 5 5 7 7 7 7 7 8 7 5 6 9 9 8 5 4 4 3 2 2 2 4 4 3 2 2 2 2 2 2 2 3 4 5 4 4 3 1 3 3 2 3 4 7 3 1 1 1 1 1 2 1 1
6 4 6 7 8 8 6 5 6 5 5 5 5 5 5 4 3 2 2 3 3 4 3 3 3 3 3 3 3 3 2 2 2 3 4 4 3 2 2 2 1 1 1 2 2 3 5 2 3 1 2 1 2 2
4 4 6 6 7 5 4 3 4 4 4 5 4 5 6 4 3 2 2 2 3 3 3 4 3 3 3 3 3 3 3 2 1 1 2 2 3 1 1 1 1 1 1 1 1 2 2 2 2 2 2 2 2 2
5 5 6 7 6 4 3 4 5 6 5 6 6 5 5 6 7 5 2 2 3 4 5 3 3 3 3 3 1 2 5 3 4 4 3 2 1 1 1 1 0 1 1 1 1 1 1 2 2 2 2 1 1 1
5 5 5 5 6 6 5 5 5 6 5 6 6 6 5 6 8 5 1 1 2 3 3 3 3 3 3 2 2 4 5 5 9 10 8 8 7 5 2 1 0 1 1 1 1 1 1 2 2 2 2 2 2 2